This is the latest recevied weather packets stored in our database for station/object N6AMQ-1. If no packets are shown the sender has not sent any weather packets the latest 10 day(s).
| Time | Temp. | Humidity | Pressure | Rain* | Wind** | Luminosity | Snow |
|---|---|---|---|---|---|---|---|
| 1788029703 | 22.22° C | 65% | 1015.9 hPa | 0 mm | - | - | - |
| 1788027541 | 21.67° C | 59% | 1015.9 hPa | 0 mm | - | - | - |
| 1788027303 | 21.67° C | 59% | 1015.9 hPa | 0 mm | - | - | - |
| 1788027241 | 21.67° C | 59% | 1015.9 hPa | 0 mm | - | - | - |
| 1788026941 | 21.11° C | 60% | 1015.9 hPa | 0 mm | - | - | - |
| 1788026641 | 20.56° C | 63% | 1015.9 hPa | 0 mm | - | - | - |
| 1788026341 | 20.56° C | 65% | 1015.9 hPa | 0 mm | - | - | - |
| 1788025141 | 19.44° C | 71% | 1015.9 hPa | 0 mm | - | - | - |
| 1788024903 | 18.89° C | 73% | 1015.9 hPa | 0 mm | - | - | - |
| 1788024842 | 18.89° C | 74% | 1015.9 hPa | 0 mm | - | - | - |
| 1788024242 | 18.89° C | 75% | 1015.9 hPa | 0 mm | - | - | - |
| 1788023941 | 18.33° C | 75% | 1015.9 hPa | 0 mm | - | - | - |
| 1788023703 | 18.33° C | 75% | 1015.9 hPa | 0 mm | - | - | - |
| 1788023651 | 18.33° C | 75% | 1015.9 hPa | 0 mm | - | - | - |
| 1788023341 | 18.33° C | 76% | 1015.9 hPa | 0 mm | - | - | - |
| 1788022741 | 17.78° C | 78% | 1016.9 hPa | 0 mm | - | - | - |
| 1788022503 | 17.78° C | 78% | 1016.9 hPa | 0 mm | - | - | - |
| 1788021541 | 17.78° C | 80% | 1015.9 hPa | 0 mm | - | - | - |
| 1788021303 | 17.78° C | 81% | 1015.9 hPa | 0 mm | - | - | - |
| 1788020341 | 17.22° C | 82% | 1015.9 hPa | 0 mm | - | - | - |
| 1788020103 | 17.22° C | 83% | 1015.9 hPa | 0 mm | - | - | - |
| 1788018902 | 16.11° C | 87% | 1015.9 hPa | 0 mm | - | - | - |
| 1788017703 | 15° C | 91% | 1015.9 hPa | 0 mm | - | - | - |
| 1788017341 | 15° C | 91% | 1015.9 hPa | 0 mm | - | - | - |
| 1788017054 | 14.44° C | 92% | 1015.9 hPa | 0 mm | - | - | - |
* Rain latest hour (hover to see other rain measurements)
** Current wind speed in m/s (hover to see current wind gust speed)